Weather Service Report


715 
ASUS41 KGYX 021710
RWRGYX
WEATHER ROUNDUP FOR MAINE AND NEW HAMPSHIRE
NATIONAL WEATHER SERVICE GRAY ME
100 PM EDT THU JUL 02 2015

MEZ002-005-006-010-012-015-018-020-021-024-026-027-029-021800-
MAINE
  
CITY           SKY/WX    TMP DP  RH WIND       PRES   REMARKS
PORTLAND       MOSUNNY   76  54  46 W17G23    29.84S                  
SANFORD        PTSUNNY   73  52  46 W13G18    29.87S                  
BAR HARBOR     MOSUNNY   72  63  73 S16       29.80S                  
WISCASSET      PTSUNNY   73  56  54 W8        29.83S                  
ROCKLAND       MOSUNNY   72  61  68 S9        29.80S                  
FRYEBURG       SUNNY     74  49  41 VRB5      29.85S                  
LEWISTONAUBURN MOSUNNY   73  52  46 W13       29.84S                  
AUGUSTA        PTSUNNY   70  52  52 W7        29.82F                  
WATERVILLE       N/A    N/A N/A N/A MISG        N/A                   
BANGOR         PTSUNNY   72  53  51 W12G20    29.80S                  
GREENVILLE       N/A     67  50  54 VRB5      29.78S                  
MILLINOCKET    PTSUNNY   71  51  49 VRB6      29.77F                  
HOULTON        PTSUNNY   70  52  52 SW15G25   29.73R                  
PRESQUE ISLE   CLOUDY    64  48  55 SW13      29.71S                  
FRENCHVILLE    CLOUDY    59  51  75 SW13G22   29.67R                  
CARIBOU        CLOUDY    63  50  62 SW14G21   29.70R                  
$$

NHZ002-005-008-009-011-012-014-021800-
NEW HAMPSHIRE
  
CITY           SKY/WX    TMP DP  RH WIND       PRES   REMARKS
PORTSMOUTH     PTSUNNY   76  55  47 W10       29.86S                  
ROCHESTER      MOSUNNY   75  55  49 VRB3G20   29.86F                  
NASHUA         MOSUNNY   77  55  46 VRB5      29.89F                  
MANCHESTER     PTSUNNY   76  54  46 SW12G20   29.86F                  
CONCORD        MOSUNNY   76  51  41 W15G21    29.88F                  
LACONIA        PTSUNNY   72  52  49 W8        29.86F                  
PLYMOUTH       FAIR      71  55  56 NW9       29.87F                  
BERLIN         CLOUDY    66  46  48 VRB6      29.87R                  
WHITEFIELD     PTSUNNY   66  47  50 W10G18    29.88S                  
JAFFREY        MOSUNNY   71  52  50 W7G17     29.91F                  
KEENE          MOSUNNY   73  52  46 W7        29.89F                  
LEBANON        MOSUNNY   73  50  44 W12       29.88S                  
MT WASHINGTON  FOG       39  39 100 W33         N/A  VSB 1/16         
$$

VTZ005-007-008-021800-
VERMONT
  
CITY           SKY/WX    TMP DP  RH WIND       PRES   REMARKS
ST JOHNSBURY     N/A     68  46  45 MISG      29.87S                  
MONTPELIER     MOSUNNY   66  46  48 W8G18     29.94F                  
BURLINGTON     MOSUNNY   71  43  36 W10       29.88F                  
$$

MAZ007-012-024-CTZ003-RIZ002-NYZ038-NYZ072-021800-
SOUTHERN NEW ENGLAND AND NY
  
CITY           SKY/WX    TMP DP  RH WIND       PRES   REMARKS
BOSTON         MOSUNNY   78  54  43 W13       29.87F                  
WORCESTER      PTSUNNY   73  54  51 W10G17    29.92F                  
NANTUCKET      SUNNY     76  60  57 S6        29.90F                  
PROVIDENCE     PTSUNNY   77  58  51 S10       29.89F                  
HARTFORD       PTSUNNY   75  55  49 NW10      29.89F                  
ALBANY         PTSUNNY   73  55  53 NW8       29.91F                  
NEW YORK CITY  CLOUDY    79  57  46 NE7       29.89F                  
$$

ANZ081-ANZ082-ANZ150-NHZ014-MEZ023>029-021800-
COASTAL MARINE OBSERVATIONS
  
STATION/POSITION TIME  TEMP    WIND        PRES    WAVE
                       AIR SEA DIR/SP/G            HT/PER
                 (UTC) (F)     (DEG/KT/KT) (MB)    (FT/S)
MOUNT DESERT ROC 1700   55     220/ 17/ 18 1010.4S
MATINICUS ROCK   1700   56     220/ 18/ 19 1010.4R
ISLE OF SHOALS   1700   71     260/ 12/ 15 1010.8F
JEFFREYS LEDGE   1603      58                N/A     3/ 8
CASHES LEDGE BUO 1650   60 55              1010.8R   4/ 8
GEORGES BANK BUO 1650   62 60  220/  2/  4 1013.3F   5/ 9
$$

.............KEY..............
   WCI - WIND CHILL
   TC  - TEMPERATURE IN CELSIUS
   VSB - VISIBILITY IN MILES
   HX  - HEAT INDEX
   FAIR- INDICATES FEW OR NO CLOUDS BELOW 12,000 FT, WITH NO 
         SIGNIFICANT WEATHER AND/OR OBSTRUCTIONS TO VISIBILITY.



Return to Home page


Western Regional Climate Center, wrcc@dri.edu